E1763 Weather Reports


time (UTC)temp
F
wind
direction
speed
knots
gust
knots
rain 1hr
in
rain 24hr
in
rain mn
in
humidity
%
barometer
mb
20260504081530 48 32 0.0 0.0 0.00 0.00 0.00 93 1008.9
20260504050009 52 271 0.0 0.0 0.00 0.00 0.00 92 1009.6
20260504044512 52 271 0.0 0.0 0.00 0.00 0.00 92 1009.2
20260504043012 52 271 0.0 0.0 0.00 0.00 0.00 92 1009.4
20260504041506 52 22 0.0 0.0 0.00 0.00 0.00 91 1009.2
20260504040006 52 26 0.0 0.0 0.00 0.00 0.00 91 1009.2
20260504034504 52 15 0.0 0.0 0.00 0.00 0.00 91 1008.8
20260504033100 52 11 0.0 0.0 0.00 0.00 0.00 91 1008.6
20260504031601 52 355 0.0 0.0 0.00 0.00 0.00 90 1008.4
20260504030057 52 246 0.0 0.0 0.00 0.00 0.00 90 1008.3
20260504024558 53 246 0.0 0.0 0.00 0.00 0.00 90 1008.3
20260504023056 53 207 0.0 0.0 0.00 0.00 0.00 90 1008.1
20260504021556 53 198 0.0 0.0 0.00 0.00 0.00 89 1008.2
20260504020056 53 198 0.0 0.0 0.00 0.00 0.00 89 1008.2
20260504014603 53 198 0.0 0.0 0.00 0.00 0.00 88 1008.1
20260504013055 54 203 0.0 0.0 0.00 0.00 0.00 88 1008.0
20260504011558 54 218 0.0 0.0 0.00 0.00 0.00 88 1008.0
20260504010056 54 194 0.0 1.7 0.00 0.00 0.00 88 1007.9
20260504004550 54 221 0.0 0.0 0.00 0.00 0.00 87 1007.8
20260504003052 55 223 0.0 0.0 0.00 0.00 0.00 86 1007.9
20260504001548 55 222 0.0 0.0 0.00 0.00 0.00 85 1007.8
20260504000048 55 231 0.0 0.0 0.00 0.00 0.00 85 1007.6
20260503234549 55 210 0.0 0.0 0.00 0.00 0.00 85 1007.5
20260503233044 55 198 0.0 0.0 0.00 0.00 0.00 85 1007.3
20260503231544 56 205 0.0 0.0 0.00 0.00 0.00 85 1007.4
20260503230044 57 217 0.0 0.0 0.00 0.00 0.00 84 1007.2
20260503224542 57 206 0.0 0.0 0.00 0.00 0.00 84 1007.2
20260503223042 57 161 0.0 1.7 0.00 0.00 0.00 84 1007.2
20260503221541 57 223 0.0 2.6 0.00 0.00 0.00 84 1007.1
20260503220048 58 269 0.0 0.0 0.00 0.00 0.00 83 1007.2
20260503214540 58 227 0.0 0.0 0.00 0.00 0.00 83 1007.1
20260503213042 58 218 0.0 0.0 0.00 0.00 0.00 83 1007.2
20260503211539 58 176 0.0 1.7 0.00 0.00 0.00 84 1007.1
20260503210038 57 122 0.0 0.0 0.00 0.00 0.00 87 1007.0
20260503204534 56 198 0.0 0.0 0.00 0.00 0.00 86 1007.1
20260503203034 56 93 0.0 0.0 0.00 0.00 0.00 85 1007.3
20260503201534 57 269 0.0 0.0 0.00 0.00 0.00 86 1007.3
20260503200032 56 242 0.0 0.0 0.00 0.00 0.00 86 1007.4
20260503194531 57 195 0.0 0.9 0.00 0.00 0.00 86 1007.3
20260503193035 56 254 0.0 0.0 0.00 0.00 0.00 85 1007.4
20260503191530 56 167 0.0 0.0 0.00 0.00 0.00 86 1007.3
20260503190031 56 223 0.0 0.0 0.00 0.00 0.00 87 1007.3
20260503184526 55 255 0.0 0.9 0.00 0.00 0.00 88 1007.3
20260503183036 55 37 0.0 0.0 0.00 0.00 0.00 88 1007.4
20260503181523 55 206 0.0 0.0 0.00 0.00 0.00 89 1007.3
20260503180022 54 198 0.0 0.0 0.00 0.00 0.00 90 1007.3
20260503174519 54 170 0.0 0.0 0.00 0.00 0.00 91 1007.3
20260503173018 54 227 0.0 0.0 0.00 0.00 0.00 92 1007.2
20260503171516 53 208 0.0 3.5 0.00 0.00 0.00 93 1007.2